Monticello, AR

11:50 PM CDT on September 19, 2017 (GMT -0500)
Monticello Municipal-Ellis

Weather History for KLLQ - March, 2013

Change the Weather History Date:

Saturday, March 23, 2013

  Actual Average Record
Temperature  
Mean Temperature 50 °F -  
Max Temperature 53 °F 67 °F 84 °F (2011)
Min Temperature 46 °F 43 °F 28 °F (1952)
Degree Days  
Heating Degree Days 16    
Moisture  
Dew Point 48 °F    
Average Humidity 93    
Maximum Humidity 100    
Minimum Humidity 87    
Precipitation  
Precipitation 1.15 in - - ()
Sea Level Pressure  
Sea Level Pressure 29.77 in    
Wind  
Wind Speed 6 mph (NE)    
Max Wind Speed 22 mph    
Max Gust Speed 32 mph    
Visibility 6 miles    
Events Rain , Thunderstorm    
Averages and records for this station are not official NWS values.
T = Trace of Precipitation, MM = Missing Value Source: NWS Daily Summary

Daily Weather History Graph

Daily Weather History Graph

Search for Another Location

Airport or City:

Trip Planner

Search our weather history database for the weather conditions in past years. The results will help you decide how hot, cold, wet, or windy it might be!

Date:

Astronomy

Mar. 23, 2013 Rise Set
Actual Time 7:06 AM CDT 7:21 PM CDT
Civil Twilight 6:41 AM CDT 7:45 PM CDT
Nautical Twilight 6:12 AM CDT 8:15 PM CDT
Astronomical Twilight 5:42 AM CDT 8:44 PM CDT
Moon 3:56 PM CDT (3/23) 4:33 AM CDT (3/23)
Length of Visible Light 13h 04m
Length of Day
12h 14m
Waxing Gibbous, 85% of the Moon is Illuminated
Mar 23
Waxing Gibbous
Mar 27
Full
Apr 2
Last Quarter
Apr 10
New
Apr 18
First Quarter

Hourly Weather History & Observations

Time (CDT) Temp. Windchill Dew Point Humidity Pressure Visibility Wind Dir Wind Speed Gust Speed Precip Events Conditions
12:06 AM 48.2 °F - 46.4 °F 93% 29.86 in 2.5 mi NE 8.1 mph - N/A   Overcast
12:43 AM 48.2 °F - 46.4 °F 93% 29.84 in 3.0 mi East 6.9 mph - N/A   Overcast
12:50 AM 48.2 °F - 46.4 °F 93% 29.84 in 2.5 mi East 8.1 mph - N/A   Overcast
12:53 AM 48.0 °F - 46.0 °F 93% 29.84 in 3.0 mi East 9.2 mph - N/A Thunderstorm Overcast
1:21 AM 46.4 °F 42.4 °F 46.4 °F 100% 29.82 in 2.5 mi ENE 8.1 mph - 0.00 in Rain , Thunderstorm Light Rain
1:38 AM 48.2 °F - 46.4 °F 93% 29.86 in 3.0 mi Calm Calm - 0.00 in Rain , Thunderstorm Light Thunderstorms and Rain
1:53 AM 48.0 °F - 46.0 °F 93% 29.83 in 5.0 mi ENE 6.9 mph - 0.00 in Rain , Thunderstorm Light Thunderstorms and Rain
2:20 AM 48.2 °F - 46.4 °F 93% 29.84 in 2.0 mi NE 4.6 mph - 0.16 in Rain , Thunderstorm Heavy Thunderstorms and Rain
2:31 AM 48.2 °F - 46.4 °F 93% 29.83 in 3.0 mi ENE 8.1 mph - 0.23 in Rain , Thunderstorm Heavy Rain
2:50 AM 48.2 °F - 46.4 °F 93% 29.85 in 2.5 mi NE 6.9 mph - 0.41 in Rain , Thunderstorm Heavy Thunderstorms and Rain
2:53 AM 48.0 °F - 46.0 °F 93% 29.84 in 3.0 mi NE 6.9 mph - 0.42 in Rain , Thunderstorm Heavy Thunderstorms and Rain
3:07 AM 48.2 °F - 46.4 °F 93% 29.84 in 10.0 mi NE 4.6 mph - 0.00 in Rain Light Rain
3:53 AM 48.0 °F - 46.0 °F 93% 29.83 in 9.0 mi NE 5.8 mph - 0.01 in Rain Light Rain
4:53 AM 48.0 °F - 46.0 °F 93% 29.81 in 10.0 mi ENE 9.2 mph - 0.00 in   Overcast
5:53 AM 48.0 °F - 46.0 °F 93% 29.82 in 10.0 mi East 5.8 mph - N/A   Overcast
6:53 AM 48.0 °F - 46.0 °F 93% 29.83 in 5.0 mi ENE 6.9 mph - N/A   Overcast
7:42 AM 48.2 °F - 46.4 °F 93% 29.84 in 2.0 mi ENE 6.9 mph - 0.00 in Rain Light Rain
7:53 AM 48.0 °F - 46.0 °F 93% 29.86 in 2.5 mi NNE 4.6 mph - 0.00 in   Overcast
8:53 AM 48.0 °F - 46.9 °F 96% 29.86 in 2.0 mi NE 6.9 mph - N/A   Overcast
9:53 AM 48.9 °F - 46.9 °F 93% 29.85 in 2.5 mi ENE 5.8 mph - 0.00 in   Overcast
10:41 AM 48.2 °F - 46.4 °F 93% 29.88 in 3.0 mi NE 5.8 mph - 0.00 in Rain Light Rain
10:53 AM 50.0 °F - 48.0 °F 93% 29.88 in 3.0 mi Calm Calm - 0.00 in   Overcast
11:18 AM 50.0 °F - 46.4 °F 87% 29.88 in 2.5 mi North 3.5 mph - 0.01 in   Overcast
11:40 AM 50.0 °F - 48.2 °F 94% 29.88 in 2.5 mi Calm Calm - 0.01 in Rain , Thunderstorm Light Rain
11:53 AM 50.0 °F - 48.0 °F 93% 29.88 in 2.5 mi Calm Calm - 0.02 in Rain Light Rain
12:00 PM 50.0 °F - 48.2 °F 94% 29.89 in 3.0 mi Calm Calm - 0.00 in Rain Light Rain
12:28 PM 50.0 °F - 48.2 °F 94% 29.83 in 2.5 mi ENE 8.1 mph - 0.03 in Rain Rain
12:39 PM 51.8 °F - 48.2 °F 88% 29.83 in 4.0 mi NNE 6.9 mph - 0.03 in Rain Light Rain
12:53 PM 51.1 °F - 48.9 °F 92% 29.82 in 7.0 mi NE 5.8 mph - 0.03 in   Overcast
1:53 PM 53.1 °F - 50.0 °F 89% 29.79 in 10.0 mi NNE 6.9 mph - N/A   Overcast
2:53 PM 53.1 °F - 50.0 °F 89% 29.74 in 10.0 mi NE 6.9 mph - N/A   Overcast
3:40 PM 53.6 °F - 50.0 °F 88% 29.74 in 10.0 mi NE 4.6 mph - N/A   Overcast
3:53 PM 53.1 °F - 50.0 °F 89% 29.74 in 10.0 mi ENE 4.6 mph - N/A   Overcast
4:53 PM 53.1 °F - 50.0 °F 89% 29.65 in 7.0 mi NE 10.4 mph - 0.00 in Rain Light Rain
5:09 PM 53.6 °F - 51.8 °F 94% 29.67 in 8.0 mi Variable 6.9 mph - 0.00 in Rain , Thunderstorm Light Rain
5:22 PM 53.6 °F - 51.8 °F 94% 29.81 in 5.0 mi WSW 13.8 mph 20.7 mph 0.04 in Rain , Thunderstorm Rain
5:30 PM 53.6 °F - 51.8 °F 94% 29.71 in 1.5 mi Variable 6.9 mph 20.7 mph 0.17 in Rain , Thunderstorm Heavy Thunderstorms and Rain
5:46 PM 51.8 °F - 51.8 °F 100% 29.75 in 3.0 mi WSW 5.8 mph - 0.23 in Rain , Thunderstorm Light Thunderstorms and Rain
5:53 PM 52.0 °F - 51.1 °F 97% 29.71 in 6.0 mi NNE 4.6 mph - 0.24 in Rain , Thunderstorm Light Rain
5:59 PM 51.8 °F - 51.8 °F 100% 29.69 in 6.0 mi NNE 4.6 mph - 0.00 in Rain Light Rain
6:03 PM 51.8 °F - 51.8 °F 100% 29.70 in 5.0 mi NNE 4.6 mph - 0.00 in Rain , Thunderstorm Light Rain
6:12 PM 51.8 °F - 51.8 °F 100% 29.69 in 5.0 mi NNW 6.9 mph - 0.01 in Rain , Thunderstorm Light Thunderstorms and Rain
6:26 PM 51.8 °F - 50.0 °F 94% 29.67 in 5.0 mi Variable 5.8 mph - 0.03 in Rain , Thunderstorm Light Rain
6:35 PM 51.8 °F - 50.0 °F 94% 29.74 in 8.0 mi Variable 5.8 mph - 0.03 in Rain , Thunderstorm Light Thunderstorms and Rain
6:48 PM 51.8 °F - 50.0 °F 94% 29.56 in 4.0 mi NE 21.9 mph 28.8 mph 0.10 in Rain , Thunderstorm Heavy Thunderstorms and Rain
6:53 PM 51.1 °F - 50.0 °F 96% 29.60 in 3.0 mi ENE 20.7 mph 32.2 mph 0.13 in Rain , Thunderstorm Heavy Thunderstorms and Rain
7:04 PM 51.8 °F - 50.0 °F 94% 29.69 in 10.0 mi Calm Calm - 0.00 in Rain , Thunderstorm Light Rain
7:11 PM 51.8 °F - 50.0 °F 94% 29.67 in 10.0 mi ENE 8.1 mph - 0.00 in   Overcast
7:38 PM 51.8 °F - 50.0 °F 94% 29.67 in 10.0 mi NNE 3.5 mph - 0.01 in Rain , Thunderstorm Light Rain
7:53 PM 52.0 °F - 50.0 °F 93% 29.68 in 10.0 mi NNW 5.8 mph - 0.01 in Rain , Thunderstorm Light Rain
8:07 PM 51.8 °F - 50.0 °F 94% 29.71 in 6.0 mi NW 6.9 mph - 0.03 in Rain , Thunderstorm Heavy Rain
8:53 PM 51.1 °F - 48.9 °F 92% 29.70 in 7.0 mi Variable 3.5 mph - 0.14 in Rain , Thunderstorm Light Thunderstorms and Rain
9:19 PM 51.8 °F - 48.2 °F 88% 29.72 in 4.0 mi NNW 5.8 mph - 0.06 in Rain , Thunderstorm Thunderstorms and Rain
9:53 PM 51.1 °F - 48.9 °F 92% 29.70 in 7.0 mi Variable 4.6 mph - 0.11 in Rain , Thunderstorm Light Thunderstorms and Rain
10:11 PM 51.8 °F - 48.2 °F 88% 29.72 in 7.0 mi Variable 4.6 mph - 0.02 in Rain , Thunderstorm Thunderstorms and Rain
10:28 PM 51.8 °F - 48.2 °F 88% 29.70 in 7.0 mi NE 5.8 mph - 0.03 in Rain Light Rain
10:53 PM 51.1 °F - 48.9 °F 92% 29.71 in 10.0 mi Variable 4.6 mph - 0.04 in Rain Light Rain
11:49 PM 50.0 °F - 48.2 °F 94% 29.67 in 7.0 mi Calm Calm - 0.00 in   Overcast
11:53 PM 50.0 °F - 48.0 °F 93% 29.67 in 6.0 mi Variable 3.5 mph - 0.00 in   Overcast